Terminal Aerodrome Forecast
Issued by NWS

Home | Current Version | Previous Version | Text Only | Print | Product List | Glossary On
Versions: 1 2 3 4 5 6 7 8 9 10 11 12 13 14 15 16 17 18 19 20 21 22 23 24 25 26 27 28
000
FTPA31 PHFO 281700 RRA
TAFKOA
TAF
PHKO 281742Z 2818/2918 04008KT P6SM SCT060
     FM282000 24008KT P6SM BKN050
     FM290800 10008KT P6SM SKC=

USA.gov is the U.S. government's official web portal to all federal, state and local government web resources and services.